Flag for Russia Weather past 2 weeks in Murmansk, Russia

Now
57 °F

Partly sunny.


Feels Like: 57 °F
Forecast: 48 / 57 °F
Wind: 3 mph from Northeast

Location: Murmansk Airport

Current Time: Jul 30, 2015 at 3:57:55 AM

Latest Report: Jul 30, 2015 at 3:00 AM


Visibility: N/A

Pressure: 29.62 "Hg

Humidity: 67%

Dew point: 46 °F

Location of MurmanskLocation

Historic Weather in Murmansk — Graph

°F

Murmansk temperature yesterday

Maximum temperature yesterday: 70 °F (at 1:30 PM)
Minimum temperature yesterday: 55 °F (at 1:30 AM)
Average temperature yesterday: 64 °F

Past Weeks' High & Low Weather Summary

 TemperatureHumidityPressure
High70 °F (Jul 29, 1:30 PM)94% (Jul 20, 5:00 AM)30.07 "Hg (Jul 20, 5:00 AM)
Low39 °F (Jul 18, 3:30 AM)32% (Jul 18, 6:00 PM)29.53 "Hg (Jul 19, 1:00 PM)
Average53 °F72%29.76 "Hg
* Reported Jul 15 2:00 AM — Jul 30 2:30 AM, Murmansk, Weather by CustomWeather, © 2015

Note: Actual official high and low records may vary slightly from our data, if they occured in-between our weather recording intervals... More about our weather records

Advertising

Murmansk weather history for previous 24 hours

 ConditionsComfort  
Time TempWeatherWind HumidityBarometerVisibility
2:30 AM
Thu, Jul 30
57 °FPassing clouds.6 mph67%29.62 "HgN/A
2:00 AM57 °FPassing clouds.8 mph67%29.62 "HgN/A
1:30 AM59 °FPassing clouds.6 mph63%29.62 "HgN/A
1:00 AM59 °FPassing clouds.10 mph63%29.62 "HgN/A
12:30 AM61 °FPartly sunny.10 mph63%29.62 "HgN/A
12:00 AM61 °FPartly sunny.8 mph63%29.62 "HgN/A
11:30 PM
Wed, Jul 29
63 °FPartly sunny.8 mph64%29.62 "HgN/A
11:00 PM63 °FPartly sunny.6 mph64%29.62 "HgN/A
10:30 PM63 °FPartly sunny.8 mph64%29.62 "HgN/A
10:00 PM63 °FPartly sunny.6 mph68%29.62 "HgN/A
9:30 PM64 °FPartly sunny.8 mph64%29.62 "HgN/A
9:00 PM64 °FPartly sunny.8 mph64%29.62 "HgN/A
8:30 PM66 °FPartly sunny.6 mph60%29.62 "HgN/A
8:00 PM68 °FPartly sunny.8 mph56%29.62 "HgN/A
7:30 PM68 °FPartly sunny.8 mph56%29.62 "HgN/A
7:00 PM68 °FPartly sunny.10 mph56%29.62 "HgN/A
6:30 PM68 °FPartly sunny.13 mph56%29.62 "HgN/A
6:00 PM70 °FPartly sunny.13 mph53%29.62 "HgN/A
5:30 PM68 °FPartly sunny.10 mph60%29.62 "HgN/A
5:00 PM68 °FPartly sunny.8 mph56%29.62 "HgN/A
4:30 PM68 °FPartly sunny.8 mph56%29.62 "HgN/A
4:00 PM68 °FPartly sunny.10 mph56%29.62 "HgN/A
3:30 PM68 °FPartly sunny.10 mph56%29.62 "HgN/A
3:00 PM68 °FPartly sunny.10 mph56%29.62 "HgN/A
2:30 PM70 °FPartly sunny.13 mph57%29.62 "HgN/A
2:00 PM68 °FPartly sunny.8 mph60%29.62 "HgN/A
1:30 PM70 °FPartly sunny.13 mph57%29.62 "HgN/A
1:00 PM68 °FPartly sunny.10 mph60%29.65 "HgN/A
12:30 PM68 °FScattered clouds.10 mph60%29.65 "HgN/A
12:00 PM68 °FScattered clouds.13 mph56%29.65 "HgN/A
11:30 AM66 °FScattered clouds.10 mph60%29.65 "HgN/A
11:00 AM66 °FScattered clouds.10 mph60%29.65 "HgN/A
10:30 AM66 °FScattered clouds.8 mph64%29.65 "HgN/A
10:00 AM66 °FScattered clouds.10 mph64%29.68 "HgN/A
9:30 AM66 °FPassing clouds.10 mph60%29.68 "HgN/A
9:00 AM64 °FPassing clouds.8 mph68%29.68 "HgN/A
8:30 AM63 °FPassing clouds.6 mph73%29.68 "HgN/A
8:00 AM63 °FPassing clouds.6 mph73%29.68 "HgN/A
7:30 AM61 °FPassing clouds.8 mph77%29.68 "HgN/A
7:00 AM61 °FPassing clouds.8 mph77%29.71 "HgN/A
6:30 AM61 °FPassing clouds.1 mph77%29.71 "HgN/A
6:00 AM59 °FPassing clouds.1 mph82%29.71 "HgN/A
5:30 AM59 °FPassing clouds.3 mph82%29.71 "HgN/A
5:00 AM59 °FScattered clouds.3 mph82%29.74 "HgN/A
4:30 AM57 °FScattered clouds.3 mph88%29.74 "HgN/A
3:30 AM59 °FScattered clouds.1 mph88%29.74 "HgN/A
3:00 AM59 °FScattered clouds.3 mph88%29.74 "HgN/A
Weather by CustomWeather, © 2015

See weather overviewHow to use our weather pages